{"data":{"norad_id":65202,"intl_designator":"2025-176E","name":"STARLINK-34905","alt_names":[],"object_type":"PAYLOAD","status":"ACTIVE","operator":null,"country":"US","launch_date":"2025-08-14","launch_site_code":"AFETR","launch_vehicle":null,"mission":null,"orbit_class":"UNKNOWN","rcs_meters":null,"size_class":null,"mass_kg":null,"dimensions":null,"purposes":["comms"],"wikipedia_slug":null,"has_3d_model":false,"image_url":null,"decayed_at":null,"tle_current":{"epoch":"2026-09-20T11:30:38.482848Z","epoch_age_seconds":122036,"freshness":"FRESH","line1":"1 65202U 25176E   26263.47961207  .00019119  00000+0  57551-3 0  9997","line2":"2 65202  53.1602 323.6969 0001190  92.9422 267.1717 15.34401581 63003","mean_motion":15.34401581,"eccentricity":0.000119,"inclination_deg":53.1602,"raan_deg":323.6969,"arg_perigee_deg":92.9422,"mean_anomaly_deg":267.1717,"bstar":0.00057551,"rev_number":6300,"period_min":93.847661383503,"perigee_km":461.88448171656,"apogee_km":463.51260057536,"semimajor_km":6840.835541146,"source":"CELESTRAK","updated_at":"2026-09-21T09:00:35.533742Z"}}}